Location: ????
(32.1228°N, 34.8377°E)
Time: 00:16:41
(UTC+00:00)

Cosmos 44 Rocket - Pass Details

Date: 21 September 2020
Orbit: 645 x 745 km, 65.1° (Epoch: 21 October)

Event Time Altitude Azimuth Distance (km) Brightness Sun altitude
Exits shadow 02:37:51 13° 238° (WSW) 1,835 4.9 -11.5°
Maximum altitude 02:41:32 37° 303° (WNW) 1,031 3.8 -10.7°
Drops below altitude 10° 02:45:57 10° 10° (N) 2,111 6.0 -9.8°
Sets 02:48:28 0° 19° (NNE) 3,046 7.0 -9.3°
